History for Miami, FL

Wednesday, December 26, 2012 — View Current Conditions

Jump to Data:

Date:
Airport Code:
Recently Viewed Airport Codes: KMIA
Daily Summary
  Actual Average Record
Temperature
Mean Temperature 75°F 69°F  
Max Temperature 84°F 77°F 88°F (1941)
Min Temperature 66°F 61°F 32°F (1906)
Degree Days
Heating Degree Days 0 2  
Month to date heating degree days 12 24  
Since 1 July heating degree days 13 27  
Cooling Degree Days 10 6  
Month to date cooling degree days 219 176  
Year to date cooling degree days 4659 4548  
Growing Degree Days 26 (Base 50)    
Moisture
Dew Point 67°F    
Average Humidity 76    
Maximum Humidity 93    
Minimum Humidity 58    
Precipitation
Precipitation T in 0.06 in 3.75 in (2013)
Month to date precipitation 0.51 1.75  
Year to date precipitation 86.94 61.61  
Snow
Snow 0.00 in in in ()
Month to date snowfall 0.0  
Since 1 July snowfall 0.0  
Snow Depth 0.00 in    
Sea Level Pressure
Sea Level Pressure 29.94 in    
Wind
Wind Speed 10 mph (SSW)    
Max Wind Speed 22 mph    
Max Gust Speed 28 mph    
Visibility 10 miles    
Events      
T = Trace of Precipitation, MM = Missing Value Source: NWS Daily Summary

Show full METARS

(help) - Comma Delimited File

Hourly Observations

Time(EST) Temperature Dew Point Humidity Sea Level Pressure Visibility Wind Direction Wind Speed Gust Speed Precipitation Events Conditions
12:53 AM 72.0°F 64.9°F 78% 29.94 in 10.0 miles SE 8.1 mph - N/A   Mostly Cloudy
1:53 AM 73.0°F 66.0°F 79% 29.92 in 10.0 miles SSE 11.5 mph - N/A   Mostly Cloudy
2:53 AM 73.0°F 66.9°F 81% 29.93 in 10.0 miles SSE 6.9 mph - N/A   Mostly Cloudy
3:53 AM 73.0°F 66.9°F 81% 29.93 in 10.0 miles SSE 5.8 mph - N/A   Mostly Cloudy
4:53 AM 72.0°F 66.9°F 84% 29.94 in 10.0 miles SSE 4.6 mph - N/A   Mostly Cloudy
5:53 AM 72.0°F 68.0°F 87% 29.96 in 10.0 miles South 4.6 mph - N/A   Mostly Cloudy
6:53 AM 72.0°F 68.0°F 87% 29.96 in 10.0 miles SSE 5.8 mph - N/A   Mostly Cloudy
7:53 AM 72.0°F 69.1°F 91% 29.96 in 10.0 miles South 5.8 mph - N/A   Scattered Clouds
8:53 AM 75.9°F 70.0°F 82% 29.97 in 10.0 miles South 10.4 mph - N/A   Mostly Cloudy
9:53 AM 78.1°F 69.1°F 74% 29.97 in 10.0 miles SSW 11.5 mph 21.9 mph N/A   Mostly Cloudy
10:53 AM 81.0°F 69.1°F 67% 29.96 in 10.0 miles SSW 10.4 mph 19.6 mph N/A   Mostly Cloudy
11:53 AM 82.0°F 68.0°F 62% 29.94 in 10.0 miles SW 12.7 mph 18.4 mph N/A   Mostly Cloudy
12:53 PM 82.9°F 68.0°F 60% 29.91 in 10.0 miles SSW 13.8 mph 23.0 mph N/A   Mostly Cloudy
1:53 PM 82.0°F 66.9°F 60% 29.89 in 10.0 miles WSW 13.8 mph 26.5 mph N/A   Mostly Cloudy
2:53 PM 82.0°F 70.0°F 67% 29.88 in 10.0 miles SSW 15.0 mph 20.7 mph N/A   Scattered Clouds
3:53 PM 81.0°F 69.1°F 67% 29.88 in 10.0 miles SW 12.7 mph 21.9 mph N/A   Scattered Clouds
4:53 PM 79.0°F 69.1°F 72% 29.89 in 10.0 miles SW 11.5 mph 23.0 mph N/A   Scattered Clouds
5:53 PM 78.1°F 69.1°F 74% 29.90 in 10.0 miles SW 11.5 mph 21.9 mph N/A   Scattered Clouds
6:53 PM 75.9°F 70.0°F 82% 29.91 in 10.0 miles SW 9.2 mph - N/A   Scattered Clouds
7:53 PM 75.0°F 71.1°F 87% 29.93 in 10.0 miles SW 6.9 mph - N/A   Partly Cloudy
8:53 PM 70.0°F 64.9°F 84% 29.97 in 10.0 miles WNW 8.1 mph - 0.00 in   Partly Cloudy
9:53 PM 69.1°F 64.9°F 87% 29.99 in 10.0 miles WNW 8.1 mph - N/A   Partly Cloudy
10:53 PM 68.0°F 63.0°F 84% 30.00 in 10.0 miles WNW 9.2 mph - N/A   Partly Cloudy
11:20 PM 68.0°F 62.6°F 83% 30.00 in 8.0 miles NW 8.1 mph - N/A   Mostly Cloudy
11:53 PM 66.0°F 60.1°F 81% 30.01 in 8.0 miles NW 10.4 mph - N/A   Mostly Cloudy